EW9945 Weather Reports


Display with metric or nautical units.
time (UTC)temp
F
wind
direction
speed
MPH
gust
MPH
rain 1hr
in
rain 24hr
in
rain mn
in
humidity
%
barometer
mb
20260906223133 69 326 2.0 9.0 0.00 0.00 0.00 60 1016.8
20260906221534 70 24 0.0 7.0 0.00 0.00 0.00 60 1016.8
20260906220035 71 5 0.0 10.0 0.00 0.00 0.00 57 1016.7
20260906214533 72 326 0.0 10.0 0.00 0.00 0.00 57 1016.6
20260906213034 73 330 1.0 6.0 0.00 0.00 0.00 56 1016.6
20260906211535 73 346 0.0 9.0 0.00 0.00 0.00 55 1016.6
20260906210032 72 355 1.0 5.0 0.00 0.00 0.00 57 1016.5
20260906204532 73 329 1.0 4.0 0.00 0.00 0.00 54 1016.6
20260906203031 74 63 0.0 4.0 0.00 0.00 0.00 54 1016.5
20260906201536 74 74 0.0 3.0 0.00 0.00 0.00 51 1016.5
20260906200031 74 304 7.0 11.0 0.00 0.00 0.00 52 1016.3
20260906194531 73 350 1.0 8.0 0.00 0.00 0.00 53 1016.5
20260906193031 72 355 0.0 12.0 0.00 0.00 0.00 52 1016.5
20260906191529 73 324 0.0 5.0 0.00 0.00 0.00 55 1016.5
20260906190029 72 355 2.0 13.0 0.00 0.00 0.00 52 1016.6
20260906184528 73 340 8.0 13.0 0.00 0.00 0.00 53 1016.7
20260906183032 74 44 1.0 5.0 0.00 0.00 0.00 56 1016.7
20260906181528 73 355 4.0 12.0 0.00 0.00 0.00 53 1016.7
20260906180025 73 338 1.0 7.0 0.00 0.00 0.00 56 1016.8
20260906174523 71 321 6.0 14.0 0.00 0.00 0.00 60 1016.7
20260906173023 72 325 2.0 11.0 0.00 0.00 0.00 59 1016.8
20260906171521 72 5 2.0 9.0 0.00 0.00 0.00 61 1016.9
20260906170020 71 360 2.0 13.0 0.00 0.00 0.00 64 1017.0
20260906164519 69 5 4.0 16.0 0.00 0.00 0.00 65 1016.9
20260906163018 72 53 0.0 12.0 0.00 0.00 0.00 64 1016.8
20260906161517 71 360 5.0 8.0 0.00 0.00 0.00 66 1017.0
20260906160014 70 325 2.0 8.0 0.00 0.00 0.00 69 1017.2
20260906154511 68 11 4.0 9.0 0.00 0.00 0.00 73 1017.3
20260906153016 68 5 3.0 11.0 0.00 0.00 0.00 72 1017.0
20260906151511 68 11 0.0 6.0 0.00 0.00 0.00 74 1017.1
20260906150007 66 30 0.0 6.0 0.00 0.00 0.00 78 1017.1
20260906144513 67 332 4.0 8.0 0.00 0.00 0.00 77 1017.1
20260906143007 66 5 4.0 13.0 0.00 0.00 0.00 79 1016.9
20260906141600 65 317 5.0 11.0 0.00 0.00 0.00 82 1017.0
20260906140106 64 341 3.0 11.0 0.00 0.00 0.00 82 1016.8
20260906134557 64 9 1.0 8.0 0.00 0.00 0.00 84 1016.6
20260906133121 63 355 3.0 12.0 0.00 0.00 0.00 84 1016.6
20260906131612 62 350 3.0 9.0 0.00 0.00 0.00 88 1016.6
20260906130058 62 338 3.0 10.0 0.00 0.00 0.00 90 1016.8
20260906124548 61 355 1.0 7.0 0.00 0.00 0.00 91 1016.6
20260906123050 60 360 0.0 4.0 0.00 0.00 0.00 93 1016.4
20260906121548 59 360 1.0 4.0 0.00 0.00 0.00 93 1016.3
20260906120047 59 5 0.0 10.0 0.00 0.01 0.00 93 1016.3
20260906114540 58 331 0.0 4.0 0.00 0.01 0.00 93 1016.1
20260906113039 58 331 0.0 1.0 0.00 0.01 0.00 93 1015.9
20260906111537 58 331 0.0 1.0 0.00 0.01 0.00 93 1015.9
20260906110034 57 331 0.0 0.0 0.00 0.01 0.00 93 1015.8
20260906104531 57 331 0.0 0.0 0.00 0.01 0.00 93 1015.7
20260906103030 56 331 0.0 0.0 0.00 0.01 0.00 93 1015.5
20260906101531 56 331 0.0 0.0 0.00 0.01 0.00 93 1015.5
20260906100029 56 331 0.0 0.0 0.00 0.01 0.00 93 1015.5
20260906094528 56 331 0.0 0.0 0.00 0.01 0.00 93 1015.5
20260906093031 56 331 0.0 0.0 0.00 0.01 0.00 93 1015.3
20260906091522 55 331 0.0 0.0 0.00 0.01 0.00 93 1015.1
20260906090021 56 331 0.0 0.0 0.00 0.01 0.01 93 1015.0
20260906084521 56 331 0.0 0.0 0.00 0.01 0.01 93 1014.9
20260906083023 56 331 0.0 0.0 0.00 0.01 0.01 93 1014.7
20260906081525 55 331 0.0 0.0 0.00 0.01 0.01 93 1014.5
20260906080018 55 331 0.0 0.0 0.00 0.01 0.01 93 1014.4
20260906074518 55 331 0.0 0.0 0.00 0.01 0.01 93 1014.4
20260906073018 54 331 0.0 0.0 0.00 0.01 0.01 92 1014.4
20260906071520 55 331 0.0 0.0 0.00 0.01 0.01 92 1014.3
20260906070018 55 331 0.0 0.0 0.00 0.01 0.01 92 1014.3
20260906064520 55 331 0.0 0.0 0.00 0.01 0.01 92 1014.3
20260906063015 56 331 0.0 0.0 0.00 0.01 0.01 92 1014.3
20260906061513 56 331 0.0 0.0 0.00 0.01 0.01 92 1014.5
20260906060021 56 331 0.0 0.0 0.00 0.01 0.01 92 1014.5
20260906054512 56 331 0.0 0.0 0.00 0.01 0.01 91 1014.5
20260906053019 57 331 0.0 0.0 0.00 0.01 0.01 91 1014.4
20260906051510 57 331 0.0 0.0 0.00 0.01 0.01 91 1014.4
20260906050010 57 331 0.0 0.0 0.00 0.01 0.01 91 1014.3
20260906044510 57 331 0.0 0.0 0.00 0.01 0.01 91 1014.4
20260906043010 58 331 0.0 0.0 0.00 0.01 0.01 90 1014.5
20260906041512 58 331 0.0 0.0 0.00 0.01 0.01 90 1014.4
20260906040007 59 331 0.0 0.0 0.00 0.01 0.01 90 1014.3
20260906034506 59 331 0.0 0.0 0.00 0.01 0.01 90 1014.3
20260906033007 59 331 0.0 0.0 0.00 0.01 0.01 89 1014.3
20260906031504 59 331 0.0 0.0 0.00 0.01 0.01 89 1014.1
20260906030004 59 331 0.0 0.0 0.00 0.01 0.01 88 1014.0
20260906024502 60 331 0.0 0.0 0.00 0.01 0.01 87 1013.9
20260906023002 61 331 0.0 0.0 0.00 0.01 0.01 84 1014.0
20260906021510 61 331 0.0 0.0 0.00 0.01 0.01 82 1013.9
20260906020003 62 331 0.0 0.0 0.00 0.01 0.01 81 1013.9
20260906014503 63 335 0.0 0.0 0.00 0.01 0.01 80 1013.8
20260906013100 64 335 0.0 0.0 0.00 0.01 0.01 79 1013.6
20260906011612 64 335 0.0 0.0 0.00 0.01 0.01 79 1013.6
20260906010057 64 335 0.0 0.0 0.00 0.01 0.01 77 1013.4
20260906004556 65 335 0.0 2.0 0.00 0.01 0.01 77 1013.4
20260906003054 65 333 2.0 5.0 0.00 0.01 0.01 76 1013.1
20260906001600 66 9 2.0 5.0 0.00 0.01 0.01 74 1013.2
20260906000054 67 9 1.0 5.0 0.00 0.01 0.01 72 1012.8
20260905234553 67 9 0.0 3.0 0.00 0.01 0.01 70 1012.7
20260905233111 68 33 0.0 3.0 0.00 0.01 0.01 68 1012.7
20260905231557 69 349 0.0 6.0 0.00 0.01 0.01 67 1012.7
20260905230053 70 313 2.0 5.0 0.00 0.01 0.01 66 1012.6
20260905224610 71 355 2.0 8.0 0.00 0.01 0.01 64 1012.6